Terug naar catalogus

CZ-6A DEB

ActiefSSO
NORAD 54491·DEBRIS·🇨🇳 China

Gelanceerd Nov 11, 2022 vanaf Taiyuan Satellite Launch Center

Loading…

Volgende Passages (komende 24 uur)

TLE

VersSource: Space-Track

Epoch: Sep 13, 2026, 22:54 UTC

1 54491U 22151HT  26256.95425198  .00000319  00000-0  20219-3 0  9998
2 54491  98.9133 264.0584 0108999  45.6559 315.3479 14.07863669196612

Volg CZ-6A DEB in realtime met AllMySat

Download on the App Store